Boothville, LA

7:46 PM CST on February 24, 2017 (GMT -0600)
Boothville

Weather History for KBVE - November, 2012

Change the Weather History Date:

Sunday, November 4, 2012

  Actual Average (KAXO) Record (KAXO)
Temperature  
Mean Temperature 70 °F -  
Max Temperature 81 °F 69 °F 80 °F (2012)
Min Temperature 62 °F 65 °F 53 °F (2011)
Cooling Degree Days 6    
Growing Degree Days 20 (Base 50)    
Moisture  
Dew Point 64 °F    
Average Humidity 88    
Maximum Humidity 100    
Minimum Humidity 64    
Precipitation  
Precipitation 0.00 in - - ()
Sea Level Pressure  
Sea Level Pressure 30.09 in    
Wind  
Wind Speed 3 mph (WSW)    
Max Wind Speed 12 mph    
Max Gust Speed 21 mph    
Visibility 7 miles    
Events Rain    
Averages and records for this station are not official NWS values.
T = Trace of Precipitation, MM = Missing Value Source: NWS Daily Summary

Daily Weather History Graph

Daily Weather History Graph

Search for Another Location

Airport or City:

Trip Planner

Search our weather history database for the weather conditions in past years. The results will help you decide how hot, cold, wet, or windy it might be!

Date:

Astronomy

Nov. 04, 2012 Rise Set
Actual Time 6:13 AM CST 5:08 PM CST
Civil Twilight 5:48 AM CST 5:33 PM CST
Nautical Twilight 5:20 AM CST 6:01 PM CST
Astronomical Twilight 4:52 AM CST 6:29 PM CST
Moon 9:50 PM CST (11/4) 10:52 AM CST (11/4)
Length of Visible Light 11h 44m
Length of Day
10h 55m
Waning Gibbous, 72% of the Moon is Illuminated
Nov 4
Waning Gibbous
Nov 6
Last Quarter
Nov 13
New
Nov 20
First Quarter
Nov 28
Full

Hourly Weather History & Observations

Time (CST) Temp. Dew Point Humidity Pressure Visibility Wind Dir Wind Speed Gust Speed Precip Events Conditions
12:51 AM 70.0 °F 66.9 °F 90% 30.10 in 10.0 mi SW 4.6 mph - N/A   Clear
1:51 AM 70.0 °F 66.9 °F 90% 30.10 in 10.0 mi SW 3.5 mph - N/A   Clear
1:51 AM 64.9 °F 64.0 °F 97% 30.08 in 6.0 mi Calm Calm - N/A   Clear
2:39 AM 62.6 °F 62.6 °F 100% 30.08 in 1.8 mi Calm Calm - N/A   Clear
2:48 AM 64.4 °F 62.6 °F 94% 30.08 in 3.0 mi Calm Calm - N/A   Clear
2:51 AM 64.0 °F 64.0 °F 100% 30.08 in 4.0 mi Calm Calm - N/A   Clear
3:51 AM 64.9 °F 64.9 °F 100% 30.08 in 10.0 mi Calm Calm - N/A   Clear
4:43 AM 62.6 °F 62.6 °F 100% 30.09 in 2.5 mi Calm Calm - N/A   Clear
4:51 AM 63.0 °F 62.1 °F 97% 30.09 in 1.5 mi Calm Calm - N/A   Clear
4:57 AM 62.6 °F 62.6 °F 100% 30.09 in 3.0 mi Calm Calm - N/A   Clear
5:22 AM 62.6 °F 62.6 °F 100% 30.09 in 1.0 mi Calm Calm - N/A   Clear
5:27 AM 62.6 °F 62.6 °F 100% 30.10 in 3.0 mi Calm Calm - N/A   Clear
5:51 AM 63.0 °F 62.1 °F 97% 30.11 in 6.0 mi Calm Calm - N/A   Clear
6:25 AM 62.6 °F 62.6 °F 100% 30.11 in 0.8 mi Calm Calm - N/A   Clear
6:38 AM 62.6 °F 62.6 °F 100% 30.11 in 2.0 mi Calm Calm - N/A   Clear
6:51 AM 63.0 °F 63.0 °F 100% 30.11 in 2.5 mi Calm Calm - N/A   Clear
7:00 AM 64.4 °F 64.4 °F 100% 30.11 in 5.0 mi Calm Calm - N/A   Clear
7:51 AM 73.0 °F 70.0 °F 90% 30.12 in 10.0 mi Calm Calm - N/A   Clear
8:51 AM 77.0 °F 69.1 °F 76% 30.12 in 10.0 mi Calm Calm - N/A   Clear
9:02 AM 77.0 °F 66.2 °F 69% 30.12 in 10.0 mi SW 3.5 mph - N/A   Partly Cloudy
9:51 AM 78.1 °F 66.9 °F 68% 30.11 in 10.0 mi SW 5.8 mph - N/A   Partly Cloudy
10:23 AM 78.8 °F 66.2 °F 65% 30.11 in 10.0 mi Variable 6.9 mph - N/A   Partly Cloudy
10:51 AM 78.1 °F 66.0 °F 66% 30.10 in 10.0 mi SW 5.8 mph - N/A   Scattered Clouds
11:51 AM 79.0 °F 66.9 °F 66% 30.07 in 10.0 mi SSW 6.9 mph - N/A   Partly Cloudy
12:51 PM 79.0 °F 66.0 °F 64% 30.06 in 10.0 mi SW 6.9 mph - N/A   Clear
1:51 PM 79.0 °F 66.9 °F 66% 30.06 in 10.0 mi West 8.1 mph - N/A   Mostly Cloudy
2:28 PM 69.8 °F 64.4 °F 83% 30.07 in 10.0 mi North 11.5 mph 20.7 mph 0.00 in Rain Light Rain
2:51 PM 68.0 °F 64.0 °F 87% 30.07 in 9.0 mi North 10.4 mph 19.6 mph 0.00 in   Mostly Cloudy
3:51 PM 69.1 °F 63.0 °F 81% 30.07 in 10.0 mi NNE 10.4 mph - 0.00 in   Mostly Cloudy
4:51 PM 69.1 °F 62.1 °F 78% 30.06 in 10.0 mi Variable 4.6 mph - N/A   Overcast
5:51 PM 68.0 °F 62.1 °F 81% 30.06 in 10.0 mi Calm Calm - N/A   Scattered Clouds
6:51 PM 66.9 °F 62.1 °F 84% 30.05 in 10.0 mi ESE 3.5 mph - N/A   Clear
7:51 PM 68.0 °F 64.0 °F 87% 30.05 in 10.0 mi South 4.6 mph - N/A   Mostly Cloudy
8:51 PM 68.0 °F 64.9 °F 90% 30.06 in 10.0 mi SSW 3.5 mph - N/A   Clear
9:51 PM 66.9 °F 64.9 °F 93% 30.08 in 10.0 mi North 6.9 mph - N/A   Scattered Clouds
10:16 PM 66.2 °F 64.4 °F 94% 30.08 in 10.0 mi North 5.8 mph - N/A   Mostly Cloudy
10:26 PM 66.2 °F 64.4 °F 94% 30.08 in 10.0 mi North 4.6 mph - N/A   Scattered Clouds
10:51 PM 66.9 °F 64.0 °F 90% 30.08 in 10.0 mi Variable 3.5 mph - N/A   Clear